Regional Weather Roundup
Issued by NWS

Home | Current Version | Previous Version | Graphics & Text | Print | Product List | Glossary On
Versions: 1 2 3 4 5 6 7 8 9 10 11 12 13 14 15 16 17 18 19 20 21 22 23 24 25 26 27 28 29 30 31 32 33 34 35 36 37 38 39 40 41 42 43 44 45 46 47 48 49 50
000
ASUS43 KLMK 310710
RWRKY
KENTUCKY REGIONAL WEATHER ROUNDUP
NATIONAL WEATHER SERVICE LOUISVILLE KY
300 AM EDT FRI OCT 31 2014

NOTE "FAIR" INDICATES FEW OR NO CLOUDS BELOW 12,000 FEET
WITH NO SIGNIFICANT WEATHER AND/OR OBSTRUCTIONS TO VISIBILITY.

KYZ001>023-026-027-061>063-070>075-310800-
WESTERN AND SOUTH CENTRAL KENTUCKY

CITY           SKY/WX    TMP DP  RH WIND       PRES   REMARKS
PADUCAH        LGT RAIN  51  50  96 CALM      30.01R
HENDERSON      CLOUDY    52  43  71 NE5       30.01F
OWENSBORO      CLOUDY    50  44  79 CALM      30.02F
HOPKINSVILLE   CLOUDY    50  49  93 CALM      30.00F
BOWLING GREEN  CLOUDY    48  43  82 E3        30.02F
GLASGOW        CLOUDY    45  44  97 CALM      30.01F
$$

KYZ024-025-028>034-038-045-046-053-310800-
NORTH CENTRAL KENTUCKY

CITY           SKY/WX    TMP DP  RH WIND       PRES   REMARKS
LOUISVILLE/SDF CLOUDY    49  39  68 SE5       30.02F
LOUISVILLE/LOU CLOUDY    49  39  68 CALM      30.03F
FORT KNOX      CLOUDY    45  41  84 NE3       30.00F
$$

KYZ035>037-039>044-047>052-055>060-089>105-310800-
NORTHEAST KENTUCKY

CITY           SKY/WX    TMP DP  RH WIND       PRES   REMARKS
LEXINGTON      CLOUDY    45  40  82 CALM      30.02F
COVINGTON      LGT RAIN  44  39  82 NW7       30.02S
FRANKFORT      CLOUDY    43  38  82 CALM      30.02S
$$

KYZ054-064>069-076>088-106>120-310800-
SOUTHEAST KENTUCKY

CITY           SKY/WX    TMP DP  RH WIND       PRES   REMARKS
JACKSON        CLOUDY    41  33  73 CALM      30.01F
LONDON         MOCLDY    39  35  86 CALM      30.01F
SOMERSET       CLOUDY    37  37 100 CALM      30.03F
MIDDLESBORO    CLEAR     36  35  97 CALM      30.03S
MONTICELLO     CLOUDY    41  40  96 CALM      30.04S
$$




USA.gov is the U.S. government's official web portal to all federal, state and local government web resources and services.